Regional Weather Roundup
Issued by NWS Charleston, SC

Current Version | Previous Version | Text Only | Print | Product List | Glossary Off
Versions: 1 2 3 4 5 6 7 8 9 10 11 12 13 14 15 16 17 18 19 20 21 22 23 24 25 26 27 28 29 30 31 32 33 34 35 36 37 38 39 40 41 42 43 44 45 46 47 48 49 50

704
ASUS42 KCHS 221712
RWRCHS

REGIONAL WEATHER ROUNDUP
NATIONAL WEATHER SERVICE CHARLESTON SC
100 PM EDT FRI MAY 22 2015

NOTE: "FAIR" INDICATES FEW OR NO CLOUDS BELOW 12,000 FEET WITH NO
SIGNIFICANT WEATHER AND/OR OBSTRUCTIONS TO VISIBILITY.

NOT ALL STATIONS ARE QUALITY CONTROLLED BY THE NATIONAL
WEATHER SERVICE. USE DATA WITH CAUTION...ESPECIALLY
DEWPOINT OBSERVATIONS.

SCZ027-030-031-034>040-042>050-221800-
...SOUTHEAST SOUTH CAROLINA...

CITY           SKY/WX    TMP DP  RH WIND       PRES   REMARKS
N CHARLESTON   PTSUNNY   76  55  48 N10       30.17S
WATERFRONT PAR   N/A     73  58  59 NE6       30.14R
MOUNT PLEASANT FAIR      73  57  56 N6        30.17S
JOHNS ISLAND   DRIZZLE   73  55  53 NE8       30.17S
PINOPOLIS        N/A     72  54  53 N8        30.12
MONCKS CORNER  FAIR      73  52  46 N6        30.18S
SUMMERVILLE    FAIR      73  52  46 NE5       30.19S
BEAUFORT MCAS  PTSUNNY   76  54  46 N9        30.17S
BEAUFORT ARPT  CLOUDY    73  57  56 NE6       30.17S
HILTON HEAD IS MOSUNNY   75  57  53 NE8       30.18S
WALTERBORO     CLOUDY    72  50  46 NE10G18   30.19S
ALLENDALE      CLOUDY    72  54  53 N7        30.19S

...SOUTHERN MIDLANDS AND PEE DEE...

CITY           SKY/WX    TMP DP  RH WIND       PRES   REMARKS
GEORGETOWN     NOT AVBL
KINGSTREE      NOT AVBL
ORANGEBURG     CLOUDY    74  48  39 NE9G16    30.20S
BARNWELL       FAIR      73  52  46 E8        30.20S
AIKEN          PTSUNNY   72  43  35 N8        30.24S
MANNING        FAIR      72  45  37 NE5       30.19S
COLUMBIA       MOSUNNY   73  45  36 N7        30.20F
SUMTER         MOSUNNY   73  47  40 N8        30.18F
FLORENCE       SUNNY     73  47  39 N9        30.19S
MYRTLE BEACH   PTSUNNY   72  54  53 E6        30.20R
N MYRTLE BEACH PTSUNNY   72  55  55 VRB7      30.18S

$$

GAZ063-065-086>088-099>101-113>116-118-119-134>141-150-221800-
...SOUTHEAST GEORGIA...

CITY           SKY/WX    TMP DP  RH WIND       PRES   REMARKS
SAVANNAH ARPT  CLOUDY    76  58  53 E5        30.16S
HUNTER AAF     PTSUNNY   77  62  58 E10G17    30.13F
FORT STEWART   MOSUNNY   78  60  55 VRB2      30.13F
STATESBORO     MOSUNNY   77  63  62 E6        30.17S
SYLVANIA       CLOUDY    75  61  60 E7        30.19S
CLAXTON        FAIR      77  63  61 NE6       30.15F

...CSRA...CENTRAL AND FAR SOUTHEAST GEORGIA...

CITY           SKY/WX    TMP DP  RH WIND       PRES   REMARKS
THOMSON        MOSUNNY   75  56  50 NE8       30.24F
AUGUSTA-BUSH   MOSUNNY   74  48  39 E8        30.19S
AUGUSTA-DANIEL SUNNY     75  48  38 N8G16     30.20F
SWAINSBORO     PTSUNNY   77  61  57 E6        30.18S
VIDALIA        MOSUNNY   77  59  53 NE8       30.16F
EASTMAN        FAIR      76  55  47 CALM      30.19F
HAZLEHURST     FAIR      76  55  47 N6        30.16S
ALMA           PTSUNNY   76  54  46 CALM      30.16S
WAYCROSS       MOSUNNY   78  58  49 N6        30.15F
JESUP          FAIR      81  61  50 E3        30.15F
BAXLEY         FAIR      77  55  47 CALM      30.16S
BRUNSWICK      PTSUNNY   79  63  57 E9G16     30.15S
SAINT SIMONS   NOT AVBL

$$

SCZ027-028-034-036>038-045-046-048>050-GAZ119-141-221800-
...LAKE AND SUPPLEMENTAL COASTAL OBSERVATIONS...

STATION/POSITION TIME  TEMP    WIND        PRES    WAVE   SWELL
                       AIR SEA DIR/SP/G            HT/PER HT/PER/DIR
                 (UTC) (F)     (DEG/KT/KT) (MB)    (FT/S) (FT/S/D)
UPR LAKE MARION  NOT AVBL
WINYAH BAY       1545   68      60/ 12     1021.0
LAKE MURRAY      1600   69      20/  2/  7 1022.7R
ACE BASIN NERRS  NOT AVBL
FORT PULASKI     1600   71 78   50/ 16/ 21 1022.0R
SAPELO ISLAND    1600   76      40/  7     1021.0R

$$

ANZ835-935-AMZ111-154-330-350-352-354-370-450-454-472-221800-
...C-MAN AND BUOY OBSERVATIONS...

STATION/POSITION TIME  TEMP    WIND        PRES    WAVE   SWELL
                       AIR SEA DIR/SP/G            HT/PER HT/PER/DIR
                 (UTC) (F)     (DEG/KT/KT) (MB)    (FT/S) (FT/S/D)
BUOY 41004       1650   69 76   30/ 19/ 25 1020.1R   6/ 7   2/14
BUOY 41008       1650   72 77   50/ 16/ 19 1020.6R   3/ 4
FOLLY BEACH CMAN 1700   72      60/ 14/ 17 1021.6S
CAPERS NEARSHORE 1608   69      60/ 17/ 23 1021.7R
FRIPP NEARSHORE  1600   71      70/ 16/ 19 1020.9R


STATION/POSITION TIME  TEMP    WIND        PRES    WAVE   SWELL
                       AIR SEA DIR/SP/G            HT/PER HT/PER/DIR
                 (UTC) (F)     (DEG/KT/KT) (MB)    (FT/S) (FT/S/D)
5E ST. MARYS GA  1621      77                N/A     2/ 4
FRYING PAN BUOY  1650   68 74   40/ 16/ 19 1021.5R   4/ 5
BUOY 41025       1650   62 77   10/ 14/ 16 1021.2R   5/ 7   3/ 30/ 7
CAPE LOOKOUT NC  1700   67      20/  9/ 10 1021.2S
BUOY 41002       1650   73 75   40/ 17/ 19 1018.9R   4/ 6   2/ 30/10
BUOY 41010       1620   81 80  310/  4/  6 1018.9R
ST AUGUSTINE FL  1700   73 74   10/ 14/ 15 1020.9F


$$



USA.gov is the U.S. government's official web portal to all federal, state and local government web resources and services.